ASIASAT 6

Last updated on Nov. 18, 2019, 4:21 a.m. UTC

1 40141U 14052A   19320.86259307 -.00000353  00000-0  00000-0 0  9999
2 40141   0.0099 325.5996 0000839 284.5905 235.9246  1.00272470 18959
UTC
Height (km)
Latitude
Longitude
Inclination
Orbital Period
UTC large
Height (km)
Speed (km/s)
/
Latitude / Longitude
Inclination (degrees)
Orbital Period (minutes)
Azimuth
Elevation
Range (km)
Doppler Factor
iOS Compass Heading
iOS Angle

Next 30 passes for location: Hong Kong

Rise time Rise Azimuth (degrees) Set time Set Azimuth (degrees) Duration Max altitude (degrees)

No matching passes for this satellites